ASIASAT 9 (42942 NORAD) Tracking and Keplerian Element Data

This shows tracking and keplerian element data for the satellite.

Feedback or suggestion? Click here.




ElementValue
Catalog42942
NameASIASAT 9
Epoch Orbit778
Epoch Day316.28289414
Epoch Year2019
RAAN318.342
Inclination0.0029
Eccentricity0.0002212
Argument of Perigee276.6424
Mean Anonmoly40.1105
Mean Motion1.00270372
Decay Rate-3.46E-06
L11 42942U 17057A 19316.28289414 -.00000346 00000-0 00000-0 0 9993
L22 42942 0.0029 318.3420 0002212 276.6424 40.1105 1.00270372 7788

Live tracking and technical data element details for ASIASAT 9 (NORAD 42942). ASIASAT 9 can be tracked NOW for your location showing map with azimuth and elevation plus other details from your city location.

Track the satellite on the map from your city or location and see movement details for azimuth, elevation, latitude, longitude, range, height, and movement on the map or in text.







IsCatalogInMostPopularTable: catalog: 42942, numindb: 361
Update: records affected: 1



GetName: 42942 ASIASAT 9

Hit Count: updated at: Wed, 13 Nov 2019 18:15:48 GMT